Retour au catalogue

KOREASAT 5A

ActifCommunicationsGEO
NORAD 42984·PAYLOAD·🇰🇷 South Korea

Lancé Oct 30, 2017 depuis Cape Canaveral Space Force Station

Loading…

TLE

FraisSource: Space-Track

Époque: Sep 14, 2026, 21:11 UTC

1 42984U 17067A   26257.88265390 -.00000365  00000-0  00000-0 0  9996
2 42984   0.0142 246.2384 0000876 302.0488 236.4791  1.00271948 32426

Suivez KOREASAT 5A en temps réel avec AllMySat

Download on the App Store